Terug naar catalogus

STARLINK-2681

ActiefCommunicatieVLEO
NORAD 48465·PAYLOAD·🇺🇸 United States

Gelanceerd May 9, 2021 vanaf Cape Canaveral Space Force Station

Loading…

Volgende Passages (komende 24 uur)

TLE

VersSource: CelesTrak SupGP

Epoch: Sep 14, 2026, 21:49 UTC

1 48465C 21040AP  26257.90951389  .01727500  00000+0  10276-2 0  2576
2 48465  53.1232 342.4745 0008282 353.0832 268.0682 16.16837203    18

Volg STARLINK-2681 in realtime met AllMySat

Download on the App Store